Location: Newark
(1.5000°S, 132.5000°E)
Time: 05:34:11
(UTC+00:00)

OTV 5 (USA 277) - Visible Passes

Search period start: 19 October 2019 00:00
Search period end: 29 October 2019 00:00
Orbit: 310 x 324 km, 54.5° (Epoch: 08 October)

Date Brightness Start Highest point End Pass type
(mag) Time Alt. Az. Time Alt. Az. Time Alt. Az.
20 Oct ? 10:34:15 10° SW 10:34:55 16° SW 10:34:55 16° SW visible
22 Oct ? 09:29:10 10° SSW 09:31:48 48° ESE 09:34:18 11° NE visible
23 Oct ? 09:43:58 10° WSW 09:46:16 25° WNW 09:48:34 10° N visible
25 Oct ? 19:59:50 10° N 20:02:01 22° ENE 20:04:13 10° ESE visible
26 Oct ? 20:13:52 10° NW 20:16:29 56° WSW 20:19:08 10° SSE visible
28 Oct ? 19:13:05 19° SE 19:13:05 19° SE 19:14:00 10° SE visible
